| time (UTC) | temp C | wind direction | speed KPH | gust KPH | rain 1hr cm | rain 24hr cm | rain mn cm | humidity % | barometer mb |
| 20260507074516 | 18 | 104 | 1.6 | 11.3 | 0.00 | 0.56 | 0.00 | 81 | 1010.5 |
| 20260507073516 | 18 | 62 | 4.8 | 9.7 | 0.00 | 0.58 | 0.00 | 82 | 1010.5 |
| 20260507072519 | 17 | 76 | 4.8 | 14.5 | 0.00 | 0.61 | 0.00 | 84 | 1010.5 |
| 20260507071516 | 17 | 47 | 4.8 | 12.9 | 0.00 | 0.61 | 0.00 | 86 | 1010.4 |
| 20260507070515 | 17 | 52 | 6.4 | 9.7 | 0.00 | 0.61 | 0.00 | 87 | 1010.4 |
| 20260507065515 | 17 | 25 | 3.2 | 11.3 | 0.00 | 0.61 | 0.00 | 89 | 1010.3 |
| 20260507064517 | 16 | 18 | 6.4 | 9.7 | 0.00 | 0.61 | 0.00 | 90 | 1010.3 |
| 20260507063517 | 16 | 30 | 6.4 | 11.3 | 0.00 | 0.61 | 0.00 | 88 | 1010.2 |
| 20260507062517 | 16 | 28 | 4.8 | 12.9 | 0.00 | 0.61 | 0.00 | 88 | 1010.1 |
| 20260507061517 | 16 | 28 | 4.8 | 12.9 | 0.00 | 0.61 | 0.00 | 88 | 1010.1 |
| 20260507060516 | 16 | 29 | 8.0 | 12.9 | 0.00 | 0.64 | 0.00 | 86 | 1010.0 |
| 20260507055517 | 15 | 33 | 8.0 | 14.5 | 0.00 | 0.64 | 0.00 | 85 | 1010.0 |
| 20260507054516 | 15 | 35 | 8.0 | 12.9 | 0.00 | 0.64 | 0.00 | 85 | 1009.8 |
| 20260507053516 | 15 | 55 | 6.4 | 12.9 | 0.00 | 0.69 | 0.00 | 85 | 1009.6 |
| 20260507052516 | 15 | 53 | 4.8 | 11.3 | 0.00 | 0.69 | 0.00 | 85 | 1009.5 |
| 20260507051535 | 15 | 33 | 1.6 | 6.4 | 0.00 | 0.69 | 0.00 | 85 | 1009.5 |
| 20260507050517 | 14 | 32 | 1.6 | 8.0 | 0.00 | 0.69 | 0.00 | 86 | 1009.4 |
| 20260507045517 | 14 | 58 | 4.8 | 8.0 | 0.00 | 0.69 | 0.00 | 85 | 1009.2 |
| 20260507044517 | 15 | 43 | 1.6 | 6.4 | 0.00 | 0.69 | 0.00 | 85 | 1009.1 |
| 20260507043516 | 15 | 45 | 0.0 | 3.2 | 0.00 | 0.69 | 0.00 | 85 | 1009.1 |
| 20260507042517 | 15 | 45 | 1.6 | 4.8 | 0.00 | 0.69 | 0.00 | 86 | 1009.0 |
| 20260507041515 | 15 | 43 | 4.8 | 6.4 | 0.00 | 0.69 | 0.03 | 85 | 1008.9 |
| 20260507040517 | 15 | 27 | 3.2 | 4.8 | 0.00 | 0.69 | 0.03 | 85 | 1008.8 |
| 20260507035517 | 15 | 22 | 1.6 | 6.4 | 0.03 | 0.69 | 0.03 | 85 | 1008.8 |
| 20260507034517 | 15 | 20 | 1.6 | 6.4 | 0.03 | 0.69 | 0.03 | 85 | 1008.8 |
| 20260507033517 | 15 | 20 | 1.6 | 4.8 | 0.03 | 0.69 | 0.03 | 85 | 1008.9 |
| 20260507032517 | 15 | 20 | 1.6 | 4.8 | 0.03 | 0.69 | 0.03 | 85 | 1008.8 |
| 20260507031516 | 15 | 20 | 0.0 | 3.2 | 0.03 | 0.69 | 0.03 | 85 | 1008.8 |
| 20260507030516 | 15 | 20 | 1.6 | 4.8 | 0.03 | 0.69 | 0.03 | 85 | 1008.9 |
| 20260507025515 | 15 | 20 | 1.6 | 4.8 | 0.00 | 0.66 | 0.00 | 85 | 1008.9 |
| 20260507024516 | 15 | 20 | 1.6 | 6.4 | 0.00 | 0.66 | 0.00 | 85 | 1008.8 |
| 20260507023515 | 15 | 20 | 1.6 | 3.2 | 0.00 | 0.66 | 0.00 | 85 | 1008.8 |
| 20260507022515 | 15 | 20 | 1.6 | 4.8 | 0.00 | 0.66 | 0.00 | 86 | 1008.8 |
| 20260507021517 | 15 | 20 | 3.2 | 4.8 | 0.00 | 0.66 | 0.00 | 86 | 1008.7 |
| 20260507020517 | 14 | 20 | 3.2 | 6.4 | 0.00 | 0.66 | 0.00 | 86 | 1008.7 |
| 20260507015516 | 14 | 20 | 1.6 | 4.8 | 0.00 | 0.66 | 0.00 | 86 | 1008.7 |
| 20260507014537 | 14 | 44 | 1.6 | 4.8 | 0.00 | 0.66 | 0.00 | 86 | 1008.7 |
| 20260507013516 | 15 | 45 | 3.2 | 6.4 | 0.00 | 0.66 | 0.00 | 86 | 1008.7 |
| 20260507012515 | 15 | 39 | 4.8 | 8.0 | 0.00 | 0.66 | 0.00 | 86 | 1008.7 |
| 20260507011516 | 14 | 35 | 4.8 | 8.0 | 0.00 | 0.66 | 0.00 | 86 | 1008.8 |
| 20260507010515 | 14 | 36 | 1.6 | 4.8 | 0.00 | 0.66 | 0.00 | 86 | 1008.9 |
| 20260507005556 | 14 | 36 | 3.2 | 6.4 | 0.00 | 0.66 | 0.00 | 87 | 1008.8 |
| 20260507004517 | 14 | 74 | 1.6 | 4.8 | 0.00 | 0.66 | 0.00 | 87 | 1008.8 |
| 20260507003518 | 14 | 73 | 0.0 | 3.2 | 0.00 | 0.66 | 0.00 | 87 | 1008.8 |
| 20260507002517 | 14 | 73 | 1.6 | 4.8 | 0.00 | 0.66 | 0.00 | 87 | 1008.8 |
| 20260507001515 | 15 | 73 | 0.0 | 1.6 | 0.00 | 0.66 | 0.00 | 87 | 1008.9 |
| 20260507000516 | 15 | 73 | 1.6 | 3.2 | 0.00 | 0.66 | 0.00 | 87 | 1008.9 |
| 20260506235515 | 15 | 74 | 1.6 | 6.4 | 0.00 | 0.66 | 0.00 | 87 | 1008.9 |
| 20260506234517 | 15 | 70 | 4.8 | 8.0 | 0.00 | 0.66 | 0.00 | 87 | 1008.8 |
| 20260506233518 | 15 | 71 | 4.8 | 8.0 | 0.00 | 0.66 | 0.00 | 87 | 1008.9 |
| 20260506232517 | 15 | 74 | 3.2 | 8.0 | 0.00 | 0.66 | 0.00 | 87 | 1008.9 |
| 20260506231516 | 15 | 59 | 4.8 | 6.4 | 0.00 | 0.66 | 0.00 | 87 | 1009.0 |
| 20260506230516 | 15 | 50 | 3.2 | 6.4 | 0.00 | 0.66 | 0.00 | 88 | 1009.0 |
| 20260506225536 | 15 | 57 | 3.2 | 8.0 | 0.00 | 0.66 | 0.00 | 88 | 1009.1 |
| 20260506224516 | 15 | 70 | 4.8 | 9.7 | 0.00 | 0.66 | 0.00 | 87 | 1009.1 |
| 20260506223515 | 15 | 73 | 3.2 | 11.3 | 0.00 | 0.66 | 0.00 | 87 | 1009.1 |
| 20260506222515 | 15 | 75 | 3.2 | 11.3 | 0.00 | 0.66 | 0.00 | 87 | 1009.1 |
| 20260506221515 | 15 | 74 | 4.8 | 9.7 | 0.00 | 0.66 | 0.00 | 87 | 1009.0 |
| 20260506220517 | 15 | 73 | 1.6 | 8.0 | 0.00 | 0.69 | 0.00 | 87 | 1009.0 |
| 20260506215517 | 15 | 73 | 3.2 | 8.0 | 0.00 | 0.71 | 0.00 | 87 | 1009.0 |
| 20260506214517 | 15 | 68 | 4.8 | 8.0 | 0.00 | 0.71 | 0.00 | 87 | 1009.0 |
| 20260506213517 | 15 | 124 | 3.2 | 4.8 | 0.00 | 0.71 | 0.00 | 87 | 1009.1 |
| 20260506212517 | 15 | 124 | 1.6 | 4.8 | 0.00 | 0.71 | 0.00 | 87 | 1009.1 |
| 20260506211516 | 15 | 126 | 3.2 | 4.8 | 0.00 | 0.71 | 0.00 | 86 | 1009.1 |
| 20260506210516 | 15 | 124 | 0.0 | 1.6 | 0.00 | 0.71 | 0.00 | 87 | 1009.2 |
| 20260506205516 | 15 | 126 | 1.6 | 8.0 | 0.00 | 0.71 | 0.00 | 86 | 1009.2 |
| 20260506204535 | 15 | 102 | 3.2 | 8.0 | 0.00 | 0.71 | 0.00 | 87 | 1009.1 |
| 20260506203515 | 15 | 112 | 3.2 | 6.4 | 0.00 | 0.71 | 0.00 | 87 | 1009.0 |
| 20260506202515 | 15 | 123 | 3.2 | 6.4 | 0.00 | 0.71 | 0.00 | 87 | 1009.0 |
| 20260506201517 | 15 | 124 | 1.6 | 4.8 | 0.00 | 0.71 | 0.00 | 87 | 1008.9 |
| 20260506200516 | 15 | 138 | 3.2 | 4.8 | 0.00 | 0.74 | 0.00 | 88 | 1008.9 |
| 20260506195515 | 15 | 138 | 3.2 | 4.8 | 0.00 | 0.74 | 0.00 | 87 | 1008.8 |
| 20260506194535 | 16 | 138 | 1.6 | 4.8 | 0.00 | 0.76 | 0.00 | 87 | 1008.6 |
| 20260506193515 | 16 | 145 | 1.6 | 4.8 | 0.00 | 0.76 | 0.00 | 87 | 1008.5 |
| 20260506192518 | 16 | 154 | 3.2 | 6.4 | 0.00 | 0.76 | 0.00 | 87 | 1008.5 |
| 20260506191517 | 16 | 146 | 3.2 | 8.0 | 0.00 | 0.76 | 0.00 | 87 | 1008.4 |
| 20260506190517 | 16 | 152 | 3.2 | 8.0 | 0.00 | 0.76 | 0.00 | 87 | 1008.2 |
| 20260506185516 | 16 | 134 | 4.8 | 12.9 | 0.00 | 0.76 | 0.00 | 87 | 1008.0 |
| 20260506184516 | 16 | 128 | 4.8 | 11.3 | 0.00 | 0.76 | 0.00 | 87 | 1008.0 |
| 20260506183516 | 16 | 126 | 3.2 | 9.7 | 0.00 | 0.76 | 0.00 | 87 | 1008.1 |
| 20260506182536 | 16 | 125 | 4.8 | 9.7 | 0.00 | 0.76 | 0.00 | 87 | 1008.1 |
| 20260506181515 | 16 | 132 | 3.2 | 6.4 | 0.00 | 0.76 | 0.00 | 87 | 1008.0 |
| 20260506180515 | 16 | 135 | 1.6 | 6.4 | 0.00 | 0.76 | 0.00 | 87 | 1008.0 |
| 20260506175515 | 16 | 145 | 3.2 | 8.0 | 0.00 | 0.76 | 0.00 | 87 | 1008.0 |
| 20260506174538 | 16 | 137 | 3.2 | 8.0 | 0.00 | 0.76 | 0.00 | 87 | 1008.0 |
| 20260506173517 | 16 | 154 | 3.2 | 8.0 | 0.00 | 0.79 | 0.00 | 87 | 1007.9 |
| 20260506172517 | 16 | 158 | 1.6 | 8.0 | 0.00 | 0.79 | 0.00 | 87 | 1007.9 |
| 20260506171516 | 16 | 154 | 3.2 | 8.0 | 0.00 | 0.79 | 0.00 | 87 | 1007.8 |
| 20260506170516 | 16 | 151 | 1.6 | 4.8 | 0.00 | 0.79 | 0.00 | 88 | 1007.7 |
| 20260506165516 | 16 | 152 | 3.2 | 6.4 | 0.03 | 0.79 | 0.00 | 88 | 1007.7 |
| 20260506164516 | 16 | 178 | 1.6 | 6.4 | 0.08 | 0.79 | 0.00 | 88 | 1007.8 |
| 20260506163515 | 16 | 141 | 3.2 | 8.0 | 0.10 | 0.79 | 0.00 | 88 | 1007.8 |
| 20260506162515 | 16 | 147 | 4.8 | 9.7 | 0.18 | 0.79 | 0.00 | 88 | 1007.8 |
| 20260506161515 | 16 | 156 | 3.2 | 12.9 | 0.25 | 0.79 | 0.00 | 88 | 1007.7 |
| 20260506160536 | 16 | 158 | 6.4 | 14.5 | 0.33 | 0.79 | 0.43 | 88 | 1007.7 |
| 20260506155516 | 16 | 162 | 8.0 | 19.3 | 0.33 | 0.79 | 0.41 | 89 | 1007.7 |
| 20260506154515 | 16 | 154 | 9.7 | 27.4 | 0.30 | 0.74 | 0.33 | 89 | 1007.7 |
| 20260506153515 | 16 | 159 | 4.8 | 22.5 | 0.28 | 0.74 | 0.33 | 90 | 1007.7 |
| 20260506152515 | 17 | 132 | 6.4 | 16.1 | 0.20 | 0.69 | 0.23 | 89 | 1007.8 |
| 20260506151537 | 17 | 131 | 4.8 | 11.3 | 0.13 | 0.61 | 0.15 | 89 | 1007.8 |
| 20260506150517 | 17 | 132 | 4.8 | 19.3 | 0.05 | 0.53 | 0.10 | 90 | 1007.8 |
| 20260506145517 | 17 | 133 | 4.8 | 12.9 | 0.03 | 0.51 | 0.05 | 90 | 1007.8 |
| 20260506144517 | 17 | 127 | 4.8 | 14.5 | 0.00 | 0.51 | 0.05 | 89 | 1007.8 |
| 20260506143517 | 17 | 125 | 9.7 | 17.7 | 0.00 | 0.53 | 0.05 | 89 | 1007.9 |
| 20260506142516 | 17 | 120 | 8.0 | 17.7 | 0.00 | 0.58 | 0.05 | 89 | 1008.0 |
| 20260506141516 | 17 | 121 | 9.7 | 16.1 | 0.00 | 0.61 | 0.05 | 89 | 1008.1 |
| 20260506140515 | 18 | 107 | 8.0 | 16.1 | 0.00 | 0.64 | 0.05 | 89 | 1008.1 |
| 20260506135536 | 17 | 124 | 8.0 | 14.5 | 0.00 | 0.66 | 0.05 | 89 | 1008.2 |
| 20260506134515 | 17 | 125 | 8.0 | 17.7 | 0.00 | 0.71 | 0.05 | 89 | 1008.4 |
| 20260506133517 | 17 | 132 | 8.0 | 16.1 | 0.03 | 0.71 | 0.05 | 89 | 1008.4 |
| 20260506132517 | 17 | 140 | 8.0 | 17.7 | 0.03 | 0.76 | 0.05 | 89 | 1008.5 |
| 20260506131517 | 17 | 132 | 8.0 | 17.7 | 0.03 | 0.76 | 0.05 | 90 | 1008.5 |
| 20260506130517 | 17 | 131 | 8.0 | 17.7 | 0.05 | 0.79 | 0.05 | 90 | 1008.7 |
| 20260506125516 | 17 | 143 | 8.0 | 24.1 | 0.05 | 0.79 | 0.05 | 89 | 1008.7 |
| 20260506124536 | 17 | 150 | 9.7 | 24.1 | 0.05 | 0.79 | 0.05 | 89 | 1008.7 |
| 20260506123517 | 17 | 134 | 6.4 | 14.5 | 0.03 | 0.79 | 0.03 | 89 | 1008.7 |
| 20260506122516 | 17 | 143 | 4.8 | 14.5 | 0.03 | 0.79 | 0.03 | 89 | 1008.6 |
| 20260506121515 | 17 | 177 | 4.8 | 16.1 | 0.03 | 0.79 | 0.03 | 89 | 1008.6 |
| 20260506120516 | 17 | 177 | 6.4 | 14.5 | 0.00 | 0.76 | 0.13 | 89 | 1008.6 |
| 20260506115516 | 17 | 153 | 6.4 | 14.5 | 0.00 | 0.76 | 0.13 | 89 | 1008.7 |
| 20260506114516 | 17 | 145 | 6.4 | 16.1 | 0.00 | 0.76 | 0.13 | 89 | 1008.7 |
| 20260506113516 | 17 | 145 | 9.7 | 20.9 | 0.03 | 0.76 | 0.13 | 89 | 1008.7 |
| 20260506112515 | 17 | 142 | 6.4 | 14.5 | 0.05 | 0.79 | 0.13 | 89 | 1008.7 |
| 20260506111556 | 17 | 152 | 6.4 | 20.9 | 0.05 | 0.79 | 0.13 | 88 | 1008.7 |
| 20260506110515 | 17 | 136 | 8.0 | 16.1 | 0.05 | 0.79 | 0.13 | 89 | 1008.8 |
| 20260506105517 | 17 | 133 | 11.3 | 19.3 | 0.05 | 0.79 | 0.13 | 89 | 1008.8 |
| 20260506104517 | 17 | 139 | 9.7 | 22.5 | 0.08 | 0.79 | 0.13 | 88 | 1009.0 |
| 20260506103516 | 17 | 134 | 6.4 | 19.3 | 0.05 | 0.79 | 0.10 | 88 | 1009.0 |
| 20260506102516 | 17 | 127 | 8.0 | 16.1 | 0.05 | 0.79 | 0.08 | 89 | 1009.0 |
| 20260506101516 | 17 | 121 | 6.4 | 12.9 | 0.05 | 0.79 | 0.08 | 88 | 1009.1 |
| 20260506100536 | 17 | 126 | 6.4 | 12.9 | 0.05 | 0.79 | 0.08 | 88 | 1009.3 |
| 20260506095516 | 16 | 125 | 6.4 | 12.9 | 0.05 | 0.76 | 0.05 | 88 | 1009.4 |
| 20260506094515 | 16 | 115 | 3.2 | 11.3 | 0.03 | 0.74 | 0.05 | 88 | 1009.4 |
| 20260506093515 | 16 | 117 | 6.4 | 16.1 | 0.03 | 0.74 | 0.05 | 89 | 1009.4 |
| 20260506092515 | 16 | 113 | 9.7 | 17.7 | 0.00 | 0.71 | 0.03 | 89 | 1009.3 |
| 20260506091517 | 16 | 116 | 9.7 | 16.1 | 0.03 | 0.71 | 0.03 | 88 | 1009.3 |
| 20260506090537 | 16 | 129 | 6.4 | 16.1 | 0.03 | 0.71 | 0.03 | 88 | 1009.2 |
| 20260506085517 | 16 | 120 | 6.4 | 11.3 | 0.03 | 0.71 | 0.03 | 86 | 1009.1 |
| 20260506084516 | 16 | 115 | 6.4 | 11.3 | 0.03 | 0.71 | 0.03 | 86 | 1009.1 |
| 20260506083536 | 16 | 114 | 4.8 | 11.3 | 0.05 | 0.71 | 0.03 | 86 | 1009.0 |
| 20260506082536 | 16 | 124 | 3.2 | 9.7 | 0.05 | 0.71 | 0.03 | 86 | 1009.0 |
| 20260506081516 | 16 | 110 | 4.8 | 9.7 | 0.05 | 0.71 | 0.00 | 86 | 1008.9 |
| 20260506080515 | 16 | 85 | 3.2 | 9.7 | 0.05 | 0.71 | 0.00 | 86 | 1008.8 |